Wind_Speed
21 22 21 20 19 19 19 18 18 18 19 20 20 20 21 20 20 20 20 21 21 20 21 22 21 22 21 21 22 22 23 23 18 12 10 9 5 4 7 7 14 18 20 18 17 16 14 14 13 13 11 8 7 6 7 8 6 4 5 3 1 1 2 2 2 2 4 7 10 12 11 8 11 9 6 7 7 10 9 8 9 6 6 10 15 22 25 25
22 22 22 21 20 19 19 19 18 18 19 21 21 22 22 21 21 20 21 22 22 21 21 21 21 21 20 21 21 21 23 20 15 15 9 3 2 4 2 10 18 21 21 19 20 18 15 14 14 14 9 6 6 6 7 7 7 6 4 3 2 1 3 2 2 3 3 7 11 12 11 8 10 10 8 9 9 11 10 9 10 9 11 14 19 24 25 25
22 22 23 22 22 20 19 19 19 19 20 21 22 23 23 23 22 21 22 23 23 23 21 21 20 20 20 19 19 19 18 15 15 9 5 5 7 7 2 9 18 23 22 20 19 18 15 14 16 15 9 7 6 7 7 6 7 7 5 4 1 1 1 0 2 4 4 8 12 12 10 8 10 10 9 9 10 11 10 10 12 11 14 17 20 23 24 24
23 23 23 23 23 22 21 20 20 19 20 22 23 23 23 24 24 23 23 23 24 23 22 21 20 19 18 17 16 15 13 13 9 6 10 8 11 8 2 8 16 23 21 16 16 16 14 14 16 14 9 8 7 8 8 7 6 5 5 6 1 2 2 2 4 6 7 9 12 11 11 10 10 10 9 10 10 10 9 11 13 13 17 19 20 22 24 23
24 24 24 24 23 23 22 21 20 20 21 23 23 24 24 24 25 25 24 24 24 23 22 20 20 19 16 15 11 10 10 8 2 11 6 8 10 9 4 9 16 22 20 14 15 15 14 14 14 12 9 8 8 8 9 9 7 5 7 9 4 2 3 3 5 7 9 10 12 12 11 10 10 10 10 11 8 6 8 12 13 14 17 20 21 22 22 22
24 24 24 24 24 24 23 22 21 21 22 24 25 25 24 25 25 26 26 25 25 24 22 20 19 17 14 11 6 5 7 6 2 4 4 10 6 8 7 7 16 21 19 15 15 15 15 14 13 12 10 10 10 9 9 10 9 6 7 9 7 5 4 2 6 9 10 11 13 12 10 10 11 10 10 12 6 3 5 11 12 14 18 21 22 21 20 20
24 25 25 24 24 24 24 24 23 23 24 25 26 26 25 26 26 26 27 26 25 24 23 21 18 15 10 5 2 4 8 11 9 6 10 11 4 6 9 5 17 20 19 17 16 15 15 16 15 13 11 10 11 11 9 7 9 8 7 8 7 6 6 2 7 11 12 12 12 11 11 12 13 10 10 12 6 5 5 11 13 15 19 21 21 20 20 20
25 25 25 25 25 25 25 25 24 24 26 27 28 27 27 27 27 27 27 27 25 23 23 21 17 11 5 1 4 7 9 12 11 8 11 7 1 6 8 5 18 20 19 20 18 17 16 17 18 13 12 11 10 11 8 7 10 11 10 7 5 5 6 5 8 12 13 10 10 12 11 12 11 7 9 12 7 5 7 12 14 16 19 19 19 20 19 18
25 25 25 26 26 26 26 25 25 26 27 28 29 29 29 28 28 28 28 26 24 23 22 19 14 6 3 3 6 9 7 6 6 6 7 3 1 5 4 7 18 20 19 21 20 19 16 16 18 15 12 11 10 10 10 9 7 9 11 7 4 6 6 8 10 13 13 9 11 14 12 12 9 5 8 10 6 6 11 14 15 17 19 18 18 18 18 17
25 26 26 26 27 27 26 26 26 27 28 29 30 30 30 29 30 29 27 25 24 23 19 15 9 5 6 5 9 9 4 2 3 4 5 4 3 4 3 6 16 20 19 18 20 20 17 15 17 14 9 9 9 9 10 9 3 3 7 6 6 7 6 9 11 14 13 10 13 14 12 12 10 6 7 10 8 9 13 15 16 16 17 18 17 17 16 17
25 26 26 26 27 27 27 27 27 28 29 30 31 31 31 31 31 28 26 24 23 20 15 10 5 8 7 7 9 8 2 1 4 4 7 7 6 7 7 6 14 19 17 17 19 20 19 16 14 10 6 7 9 9 10 8 2 2 6 4 5 6 6 10 12 14 11 11 14 12 11 11 10 9 6 11 11 10 14 15 16 16 16 16 17 16 14 15
25 25 26 27 27 28 28 28 28 29 31 31 32 32 32 32 29 26 25 23 19 14 10 7 7 10 6 7 11 13 8 7 6 6 9 9 10 10 8 8 13 17 16 15 16 19 19 14 13 12 6 5 9 8 8 8 5 6 8 5 5 6 8 11 12 14 11 11 14 11 8 9 11 11 7 13 13 11 14 15 16 15 15 15 15 14 12 14
26 25 26 27 27 28 29 29 30 31 32 32 32 33 33 30 26 24 22 18 13 10 6 3 9 8 6 7 10 14 13 11 8 10 13 12 11 10 7 9 12 14 14 13 14 16 14 9 13 15 8 7 8 3 3 8 7 7 10 7 5 6 8 11 11 14 11 10 15 12 6 7 13 13 10 14 15 14 15 15 15 14 14 14 14 13 12 14
26 27 27 27 27 27 29 30 32 32 32 33 33 33 31 27 25 22 16 10 7 6 3 6 9 6 6 9 10 11 13 13 10 12 12 9 9 8 8 9 10 11 12 11 9 10 10 7 11 12 8 9 5 4 4 7 8 8 8 7 6 5 7 11 11 15 12 10 16 13 5 4 11 15 14 15 16 16 15 15 16 14 14 14 13 14 13 14
27 28 28 27 27 28 30 32 33 34 33 34 34 31 27 26 22 14 7 4 3 1 4 7 8 5 7 11 11 9 11 12 11 10 6 5 8 8 10 11 10 9 10 9 6 6 8 7 8 9 8 7 4 8 9 7 7 7 7 7 8 6 7 12 11 15 13 10 16 13 6 3 8 14 16 15 16 17 15 15 16 16 16 15 14 14 13 14
29 29 28 28 29 30 32 33 35 35 35 35 32 27 25 23 15 5 2 1 1 6 7 4 7 6 8 6 2 4 6 7 8 7 4 4 7 8 11 11 9 9 9 8 5 6 9 9 8 8 8 9 8 10 9 7 8 8 8 8 9 8 8 10 10 14 13 11 15 14 8 4 5 13 16 15 17 17 15 15 17 17 17 16 14 13 13 13
30 30 30 29 30 32 33 35 37 36 37 34 28 25 21 15 5 1 1 4 4 6 4 3 4 6 8 4 3 5 5 6 7 5 3 5 6 8 13 11 8 10 9 8 7 7 10 9 8 7 7 9 10 11 9 10 9 8 9 8 9 11 9 9 10 13 13 12 15 16 12 5 4 12 16 16 17 17 15 15 17 16 15 15 14 14 14 13
29 31 31 30 32 34 35 37 36 37 37 29 25 23 14 5 2 2 3 5 4 4 5 4 3 5 5 5 5 3 4 5 4 5 5 5 8 11 14 10 8 11 10 9 9 9 10 9 8 8 9 10 11 12 11 12 11 10 11 8 8 10 10 10 10 12 15 13 14 16 14 9 6 10 13 15 16 17 16 15 15 16 15 15 14 14 14 14
29 31 31 32 34 35 37 38 36 38 34 25 24 19 5 2 3 4 5 6 5 4 4 4 8 6 3 4 4 1 2 3 6 9 5 6 9 13 13 9 10 12 10 9 10 11 9 8 9 11 11 13 15 15 14 14 13 13 12 10 9 9 10 11 9 13 17 14 13 14 14 14 10 9 11 13 15 15 15 14 14 14 15 14 14 14 14 15
29 30 30 33 36 38 38 37 37 36 27 22 25 14 3 2 2 4 5 8 10 10 10 7 11 11 10 7 5 2 6 8 8 9 7 10 12 14 11 10 11 11 10 9 11 11 10 9 11 13 13 16 18 18 18 16 13 13 13 12 12 11 11 12 10 13 17 13 13 15 14 14 13 10 11 12 14 15 15 16 15 14 15 14 15 15 16 16
30 30 31 34 37 39 38 37 38 29 17 20 20 9 2 5 4 3 4 9 13 14 16 15 14 16 16 14 10 4 6 8 9 8 8 11 14 13 11 12 12 10 10 12 10 9 10 11 13 16 16 17 19 19 19 18 14 13 13 11 12 11 11 12 10 11 16 12 10 14 14 14 13 10 10 12 14 15 16 17 16 17 16 14 16 17 16 14
29 30 34 36 39 40 37 38 35 19 12 16 12 5 4 6 5 5 6 10 12 13 17 17 15 17 17 17 16 8 5 8 10 10 10 13 14 13 11 13 12 10 12 12 9 9 10 12 15 17 16 16 17 19 20 19 15 12 11 10 10 11 9 10 9 10 13 9 8 12 13 12 13 12 10 13 15 14 15 17 16 17 16 15 16 16 16 15
29 33 37 37 41 40 36 38 27 10 11 13 8 3 4 4 7 6 6 8 11 12 14 15 15 16 15 15 14 11 11 12 12 12 15 15 14 12 12 14 14 12 13 13 11 9 10 12 15 16 15 16 17 19 20 17 14 12 12 10 10 11 10 8 9 12 12 9 8 10 10 9 11 13 13 14 15 13 14 17 16 15 16 16 17 16 16 16
30 35 36 38 42 38 37 35 15 3 12 14 8 2 3 3 9 9 6 7 10 8 10 12 11 11 10 5 8 15 14 11 11 12 18 18 13 11 12 13 15 13 12 15 16 14 11 9 13 17 15 16 17 17 18 14 12 14 15 13 11 12 14 11 11 11 11 10 9 8 7 8 10 14 13 12 15 15 14 16 16 15 16 16 16 17 17 17
33 35 36 40 41 39 38 23 4 9 21 13 4 5 2 5 9 9 5 5 8 5 6 8 6 6 6 4 8 12 9 10 13 11 16 20 15 11 11 10 11 13 14 17 16 14 13 7 9 15 15 16 17 15 17 15 11 14 16 16 15 13 16 16 13 11 9 9 9 9 8 7 10 15 14 12 14 16 15 16 17 17 16 16 16 16 17 17
36 36 37 39 39 42 33 10 6 21 21 5 3 3 2 8 11 8 4 4 7 3 5 6 6 6 8 7 8 9 7 9 12 12 13 19 18 12 10 9 7 12 14 14 11 8 10 8 9 14 15 18 18 14 18 18 11 11 14 17 18 14 14 16 15 12 9 8 10 12 9 7 8 12 13 13 14 17 17 17 19 17 16 16 16 15 16 16
37 36 39 39 39 38 21 7 16 22 11 2 3 3 6 10 11 6 4 4 6 3 4 3 3 5 6 7 11 9 3 5 9 14 14 16 19 13 11 11 8 10 9 9 8 7 11 12 11 15 16 16 16 13 17 19 14 11 12 16 18 15 14 15 15 12 10 9 9 12 11 9 8 8 8 11 15 16 17 19 19 18 18 19 17 17 17 17
36 37 38 38 39 31 13 13 18 12 5 5 5 8 10 12 9 4 5 5 2 2 2 2 3 4 4 7 13 8 1 4 6 12 16 17 18 13 13 14 12 12 11 9 9 8 12 15 13 15 15 13 14 14 16 18 16 11 9 14 16 15 15 15 14 12 12 11 8 11 13 9 9 8 6 9 14 15 17 19 20 20 21 20 20 20 19 18
37 37 36 39 39 25 8 11 12 9 9 10 10 11 11 9 6 4 5 4 2 2 2 3 4 6 6 6 12 11 5 5 2 5 14 17 15 11 10 13 14 14 14 14 11 6 9 14 15 15 14 12 13 16 16 17 16 8 6 12 14 13 13 13 12 11 12 13 10 12 14 9 8 8 8 10 12 13 15 17 18 21 21 21 21 21 20 18
39 37 36 39 34 17 7 12 16 13 11 10 10 12 10 7 4 6 7 4 1 2 4 3 4 7 9 8 10 11 10 8 2 6 11 13 14 11 6 8 12 13 13 15 15 9 6 7 11 13 13 11 13 15 14 16 16 8 6 11 11 10 10 10 9 9 11 12 12 15 15 11 10 9 8 9 12 13 12 12 15 18 21 21 20 20 20 18
40 38 36 36 28 14 9 9 9 6 4 5 10 11 9 6 5 8 7 2 2 4 7 6 6 7 9 8 5 9 11 9 7 10 10 11 14 13 8 7 10 10 10 12 14 13 10 8 8 10 13 13 13 13 11 14 16 10 8 10 9 7 7 7 7 8 11 11 12 17 17 14 11 10 7 10 14 14 11 11 13 17 20 20 19 19 19 18
41 39 35 34 27 15 13 8 4 4 4 6 10 8 7 6 8 10 6 2 1 6 6 6 9 8 8 6 4 7 8 8 11 12 12 12 12 13 13 11 10 10 11 11 12 14 13 11 10 10 13 15 14 11 10 12 15 12 10 11 10 8 7 8 9 8 10 11 12 16 16 14 11 11 11 10 12 12 11 11 10 12 17 18 19 19 17 17
42 39 33 30 22 15 17 15 11 11 8 7 7 5 6 9 10 10 9 6 2 3 3 4 8 9 7 6 7 7 6 7 11 13 13 14 13 14 17 16 15 12 10 10 11 11 11 12 15 13 12 15 16 12 10 11 13 14 13 11 11 10 9 11 10 8 10 12 13 12 11 11 9 10 13 15 14 13 13 13 10 9 13 16 18 18 17 18
42 36 31 28 19 14 14 12 12 11 8 6 5 6 11 13 9 9 12 11 4 3 4 5 7 9 9 8 6 5 6 7 11 13 13 14 13 12 15 18 20 15 9 10 10 10 11 11 15 16 11 14 18 16 12 12 12 14 14 13 12 11 10 10 9 9 10 10 13 13 9 9 9 7 7 10 12 12 12 11 8 9 10 12 15 17 17 19
39 31 27 22 14 10 7 7 8 7 7 7 6 9 13 12 8 8 10 11 8 5 6 5 6 8 10 10 7 6 6 5 10 13 12 13 13 11 13 16 19 17 11 10 8 10 13 10 13 18 14 14 18 18 15 13 11 13 13 13 13 12 11 8 9 12 11 10 11 11 7 7 8 6 6 7 8 10 10 9 9 10 11 11 12 15 16 17
33 25 21 13 8 5 4 7 7 9 8 7 8 12 12 10 8 7 6 8 10 9 8 8 8 9 9 8 9 9 7 5 8 10 10 13 14 14 14 13 17 19 14 10 6 7 11 9 10 18 19 17 17 17 18 14 9 9 13 15 13 13 13 10 11 11 11 12 11 8 8 8 8 9 12 13 14 13 12 11 11 11 12 13 12 14 15 16
25 20 17 11 6 4 6 7 9 11 8 7 11 12 10 11 11 8 5 4 6 7 9 10 8 10 10 8 9 12 10 7 9 8 9 12 12 14 16 13 16 20 17 11 7 6 8 7 9 17 19 18 16 17 20 18 13 8 11 14 11 9 12 11 10 9 11 12 10 10 12 11 10 9 11 15 18 17 16 14 14 11 12 14 14 14 15 16
21 18 14 9 4 2 5 7 10 9 6 8 14 14 11 11 12 11 8 4 4 7 10 10 7 9 10 9 9 11 11 8 9 9 9 9 9 13 17 14 15 20 20 16 9 6 8 8 10 17 18 16 16 15 16 18 20 15 9 11 11 9 10 10 9 10 12 11 10 13 15 11 11 9 8 12 15 16 16 14 13 11 12 14 13 14 16 16
18 14 6 3 2 1 4 9 9 7 7 9 12 11 10 12 13 13 12 9 8 8 10 10 9 8 10 11 9 9 11 10 9 9 8 7 7 10 14 13 14 18 20 18 11 6 8 7 7 14 17 16 15 13 13 14 19 18 11 9 12 11 10 10 9 8 11 11 10 14 14 10 10 11 11 11 11 11 12 10 9 9 11 13 12 13 14 15
11 8 2 6 5 4 6 7 7 6 8 11 11 10 10 12 13 14 15 13 10 9 10 12 11 10 10 11 10 8 9 9 8 7 7 7 6 7 12 13 13 16 19 20 15 9 8 8 6 10 15 15 12 12 15 14 15 14 12 11 12 9 9 11 11 10 11 12 10 11 12 9 8 10 13 14 11 11 11 11 10 10 11 12 12 12 13 14
8 5 1 6 4 2 2 6 7 6 8 10 11 13 11 10 10 13 15 15 13 11 12 12 12 11 10 11 10 8 8 8 9 8 6 8 7 5 9 12 13 15 16 17 15 10 8 8 8 7 10 11 12 14 18 19 17 14 12 13 13 10 10 12 12 12 12 12 11 11 11 10 7 7 11 14 14 14 14 14 12 12 14 12 10 12 13 14
7 5 3 3 3 5 5 7 7 6 9 9 11 12 10 8 10 12 13 14 14 13 12 13 13 13 11 11 11 10 9 8 10 10 7 8 10 6 6 7 11 14 13 13 14 13 8 7 8 9 8 10 14 15 17 21 21 17 14 15 15 13 12 12 11 11 12 13 14 13 12 10 7 7 9 12 14 14 15 14 13 13 14 10 8 10 12 13
5 8 12 10 5 8 6 7 8 8 9 9 12 13 11 9 11 12 12 13 13 11 12 12 14 15 13 12 12 11 10 9 10 11 9 7 9 9 3 2 7 11 11 10 12 12 9 6 8 10 8 9 13 14 15 17 18 17 15 15 16 16 16 14 12 11 11 13 13 13 13 10 7 6 7 9 12 14 15 15 14 14 12 8 7 8 9 10
6 9 10 6 6 8 7 6 7 8 9 11 12 13 12 11 12 12 12 13 12 11 12 13 13 14 14 13 14 13 12 10 10 11 11 9 8 10 10 7 7 9 9 7 7 9 9 8 8 9 8 8 11 12 12 13 14 13 13 17 18 20 22 19 14 12 12 15 17 15 12 10 8 7 6 8 13 15 15 14 12 11 11 8 6 7 7 9
7 7 6 6 8 9 7 6 7 7 8 10 11 12 12 11 12 14 14 13 12 12 12 12 13 14 14 14 15 15 14 12 10 9 10 10 9 10 12 10 9 11 8 2 3 4 9 9 9 10 10 10 11 11 10 11 12 11 14 19 21 24 25 19 13 13 13 14 17 15 11 11 12 12 11 11 13 12 12 12 13 12 11 8 5 6 7 8
6 5 5 5 7 7 7 7 8 8 7 8 8 10 11 11 11 13 15 14 14 14 12 11 12 14 15 16 15 15 17 16 12 10 9 9 9 9 9 8 9 10 5 6 7 5 7 8 11 13 14 12 11 10 10 11 12 14 17 21 21 22 25 20 13 13 12 11 14 15 13 14 15 15 15 15 14 13 12 13 15 13 11 9 7 7 7 8
4 5 5 4 3 6 7 7 7 7 7 7 6 7 10 10 9 10 13 13 14 15 13 12 13 13 14 16 15 14 15 16 15 14 12 10 9 7 7 7 9 8 5 7 8 7 6 8 13 17 19 18 16 14 13 14 15 17 19 21 20 19 22 21 18 16 15 12 13 14 15 17 17 17 16 15 14 14 13 13 15 14 11 8 6 7 8 9
5 6 5 5 5 6 6 4 5 7 9 10 8 8 11 11 10 9 9 11 13 15 12 12 16 17 16 15 13 12 14 14 14 15 13 11 10 9 7 9 11 11 9 10 9 7 7 9 13 17 20 22 22 20 18 16 15 17 19 20 21 22 22 21 21 22 20 14 13 14 16 19 19 19 20 17 14 14 14 14 16 16 13 7 6 7 9 10
6 6 5 5 5 7 9 10 11 11 12 11 8 9 11 12 13 11 7 7 11 13 13 13 16 18 19 18 13 11 12 12 12 14 13 12 12 11 9 9 11 13 12 11 8 7 7 9 13 17 19 21 24 23 23 21 18 19 20 21 22 24 25 23 22 24 24 21 19 18 19 19 17 18 21 20 17 16 15 15 16 17 16 10 7 9 10 11
5 5 5 5 6 8 9 10 10 9 9 9 8 9 10 12 13 10 7 8 9 9 12 14 15 15 18 20 17 15 14 13 12 12 11 12 13 11 9 8 9 12 14 11 7 7 7 8 11 13 14 17 21 22 23 23 22 21 21 22 23 23 24 25 23 22 22 22 23 23 22 18 15 15 18 18 17 17 16 17 17 17 18 14 10 10 11 12
8 8 6 5 6 7 7 8 8 7 6 6 8 7 7 9 8 8 9 10 12 12 10 8 8 8 9 14 17 16 13 11 11 9 6 8 9 8 7 6 7 9 11 10 6 7 8 7 7 8 9 12 17 20 22 22 21 21 21 21 23 22 21 21 20 21 21 20 22 23 19 15 13 15 17 17 18 19 18 18 17 16 16 16 12 11 12 13
8 8 6 5 6 6 7 7 7 7 6 5 5 5 5 7 8 10 9 8 9 9 7 9 10 8 5 8 9 7 5 6 6 7 6 7 9 9 7 6 6 7 7 8 7 5 5 4 5 7 9 10 14 18 19 19 17 16 16 19 21 21 21 20 20 21 23 21 18 17 15 13 14 15 17 18 21 21 18 17 15 14 14 14 12 12 12 12
Wind_Direction
354 353 352 350 348 347 346 348 350 351 351 350 349 348 347 345 342 340 339 336 336 335 332 330 329 327 326 325 325 326 326 325 319 297 272 283 303 268 256 216 191 177 162 162 166 167 171 183 185 179 186 190 217 229 194 210 231 227 241 253 296 24 73 96 147 95 88 134 152 158 171 161 148 158 143 155 155 140 155 148 138 131 125 129 128 137 144 150
352 351 350 349 347 347 346 346 348 349 349 348 346 345 345 342 340 339 336 334 333 331 330 328 327 326 324 323 325 325 326 321 297 280 268 263 358 354 268 197 199 190 174 172 176 178 180 183 178 178 188 197 210 201 182 188 203 226 251 261 279 11 62 66 149 132 122 140 151 163 172 169 155 155 163 173 155 152 162 149 148 133 124 129 133 141 147 153
351 350 349 347 346 346 345 345 346 348 347 345 344 343 343 340 339 338 335 333 330 328 328 326 325 325 322 323 324 326 328 310 284 261 158 78 20 355 358 180 196 195 185 181 184 188 192 186 176 180 197 215 207 191 196 178 187 226 246 259 250 69 40 157 174 162 139 137 152 164 167 169 156 155 175 177 158 169 175 158 160 148 141 143 142 146 151 157
350 349 347 346 345 344 344 344 345 347 345 343 341 340 340 339 338 336 335 331 328 326 324 324 323 322 321 321 322 330 322 290 282 141 129 37 14 4 9 168 182 189 189 188 193 198 203 193 180 191 210 225 215 204 216 185 188 220 220 255 335 68 262 173 171 171 145 147 158 159 164 168 157 162 181 175 166 181 185 171 171 159 151 150 148 152 156 161
349 348 346 345 343 342 342 342 344 344 343 341 338 338 338 338 337 335 334 330 326 323 321 320 319 320 319 317 324 331 308 281 84 124 136 1 6 6 15 176 176 182 192 198 201 201 206 198 186 203 220 230 221 210 225 203 208 231 216 251 275 279 270 134 160 170 151 159 158 157 168 160 158 174 184 183 177 176 179 174 172 162 155 156 154 155 160 164
347 347 345 343 342 340 340 340 341 342 341 339 337 336 336 335 335 333 332 329 324 320 318 318 317 319 315 316 330 315 286 281 53 141 288 333 335 360 19 183 181 183 195 201 201 198 201 198 192 205 216 227 224 216 230 207 206 239 223 234 245 248 267 121 161 170 160 168 163 162 165 153 167 179 185 193 172 97 159 164 163 159 157 158 156 158 164 168
346 345 343 342 341 339 338 337 339 340 339 338 335 334 334 333 332 331 329 326 322 318 316 315 316 314 308 322 319 252 256 269 281 268 290 308 289 352 8 178 182 186 197 199 198 197 195 196 198 204 210 221 227 223 231 206 202 235 238 226 227 232 251 216 166 173 174 174 166 162 160 163 179 173 180 194 150 85 153 155 154 154 157 160 159 164 167 170
345 344 342 341 340 338 337 337 339 340 338 336 334 334 333 331 331 329 326 322 318 315 312 311 312 305 285 248 268 265 255 264 276 272 276 284 284 355 12 157 182 190 198 201 199 198 197 198 200 204 214 220 224 221 218 211 212 227 240 238 225 231 244 220 177 176 179 174 165 162 163 171 178 160 176 189 149 123 157 150 152 154 157 164 166 169 169 172
344 343 342 340 339 338 336 336 338 339 337 335 333 333 332 330 329 327 323 319 315 311 307 307 304 282 199 200 265 275 270 277 286 267 252 229 322 355 29 166 185 192 202 206 203 203 201 201 203 205 222 226 222 221 210 218 222 216 232 244 234 234 229 208 185 177 178 172 165 165 169 171 167 152 172 178 146 139 155 153 157 159 164 168 170 171 171 175
344 343 342 340 338 337 335 335 338 339 336 333 332 331 330 330 327 324 320 315 313 307 302 301 289 207 185 226 254 264 282 314 268 241 229 221 277 321 315 204 190 197 207 209 209 208 205 206 205 208 239 240 220 220 212 219 234 195 231 252 253 247 215 198 185 177 176 168 169 171 170 164 164 183 179 162 149 150 158 161 163 166 170 171 172 173 173 178
344 342 341 340 338 336 335 334 338 339 336 333 331 329 329 328 325 322 317 314 311 302 297 295 247 180 200 239 248 259 328 321 229 219 243 252 275 294 289 229 196 202 208 208 211 210 208 211 206 203 233 230 211 216 214 216 247 220 233 240 229 228 192 189 180 174 171 166 178 174 161 158 170 206 191 151 156 163 164 166 169 172 175 175 175 173 175 182
343 342 340 339 338 337 335 334 338 339 335 332 330 328 327 325 323 319 316 314 306 294 292 281 198 172 215 244 242 255 277 278 245 230 253 264 274 279 271 231 207 207 209 209 210 207 210 213 208 206 207 207 204 210 206 205 229 226 226 225 183 182 181 181 175 174 173 171 174 161 155 174 187 205 177 148 157 166 169 169 172 177 176 177 177 174 179 185
343 341 340 338 337 337 336 336 339 339 334 331 329 327 326 324 321 318 316 311 299 285 284 232 169 175 233 251 251 257 263 263 255 258 264 266 264 258 243 228 213 212 213 208 204 203 208 214 215 213 215 225 205 173 161 190 217 219 217 226 185 181 181 175 173 173 178 171 164 161 181 198 195 198 168 153 162 166 173 174 175 180 178 180 181 178 182 185
342 341 340 338 336 337 337 337 339 338 334 331 329 326 325 323 318 316 313 305 294 277 250 147 155 185 232 258 268 264 260 256 257 262 260 250 236 222 212 210 208 210 208 205 202 199 207 217 224 220 226 243 211 145 175 188 208 215 211 221 211 210 176 169 175 174 175 168 168 184 226 200 183 185 169 162 170 170 176 178 179 181 178 182 184 183 186 186
341 340 339 337 337 338 337 337 339 338 333 331 328 327 325 319 316 315 303 292 288 214 111 132 164 208 256 267 267 263 258 246 237 235 227 206 201 195 190 191 199 200 194 204 211 201 209 213 220 216 205 223 210 186 202 201 202 206 211 214 211 217 166 164 183 182 175 165 179 200 230 201 168 171 170 170 176 179 183 180 181 184 181 184 185 188 190 186
340 340 339 337 339 340 338 338 340 338 333 330 328 328 324 317 313 309 271 237 133 117 110 149 188 224 278 291 249 242 241 212 196 189 185 204 203 187 173 176 190 190 191 203 207 201 204 206 213 219 201 196 203 202 205 210 204 198 218 223 205 205 175 163 185 190 177 162 184 205 219 215 162 164 169 174 180 186 190 185 184 186 184 185 187 189 192 188
340 339 338 338 340 341 340 340 340 338 332 330 331 330 323 313 294 199 117 124 121 124 147 247 205 222 265 276 247 249 214 174 166 172 217 232 214 176 160 166 181 183 186 190 198 199 193 197 202 212 215 201 203 207 208 212 206 194 214 229 211 204 191 169 179 189 183 174 188 204 217 226 146 161 173 177 182 188 195 191 186 188 188 188 190 191 193 193
340 339 338 337 340 342 341 341 340 337 332 330 336 334 324 307 174 134 123 134 128 160 212 254 217 235 241 215 247 267 142 148 184 260 270 226 200 175 165 173 172 170 176 177 191 198 185 191 195 198 206 202 203 207 210 212 208 202 205 218 216 207 200 185 177 184 187 190 197 202 215 223 178 162 176 183 185 191 197 196 191 190 190 190 192 195 194 196
339 339 338 337 340 342 341 340 339 337 333 334 343 341 320 197 164 178 196 185 179 216 243 186 192 255 312 190 218 232 199 247 280 275 241 173 177 173 172 181 172 174 184 177 184 193 189 189 197 205 203 200 205 207 213 216 213 214 209 213 215 202 205 203 188 183 185 193 206 205 214 222 205 174 177 186 189 196 200 199 198 195 193 193 194 198 197 200
339 338 336 337 340 341 339 338 338 336 335 343 347 336 266 248 246 203 209 220 226 247 274 250 214 255 286 264 252 257 255 255 262 256 202 166 170 171 174 179 178 188 197 187 178 185 196 201 202 209 205 200 204 207 216 222 219 220 216 218 219 205 204 205 194 185 185 195 210 211 218 224 219 199 184 187 190 200 205 202 204 200 198 197 196 199 199 202
337 337 336 338 340 340 338 338 337 335 341 354 345 318 335 3 325 329 319 265 247 240 255 256 240 252 261 261 267 276 264 240 230 232 199 177 175 175 176 178 185 195 203 200 181 175 200 214 209 207 209 205 204 207 215 221 222 221 222 223 222 216 204 194 188 185 189 204 213 212 224 228 226 218 194 190 194 201 207 206 207 205 203 201 199 201 201 203
336 337 338 339 340 338 337 338 336 332 350 357 336 306 54 38 355 333 313 287 268 242 243 247 246 251 252 253 256 250 246 235 230 224 192 182 188 186 177 183 199 199 193 200 187 179 205 221 214 206 212 212 206 207 211 218 221 221 226 227 225 221 199 179 184 190 192 208 217 208 224 232 226 225 210 202 202 203 209 212 211 209 206 204 203 202 202 202
334 337 339 341 340 337 336 337 335 331 351 344 311 299 78 49 360 328 273 282 283 248 230 234 238 242 243 247 237 214 220 228 232 220 190 187 199 196 186 188 204 202 188 196 199 198 207 216 216 209 211 212 206 205 207 214 220 223 226 226 227 216 197 184 191 197 196 211 231 218 225 239 231 228 221 212 210 207 210 215 217 213 211 210 207 205 204 202
333 337 339 340 340 337 337 337 336 336 334 321 283 234 108 19 356 339 281 269 279 247 218 228 235 239 242 243 193 196 216 219 222 214 185 188 198 195 200 197 202 207 196 199 208 218 219 213 215 209 204 207 207 204 206 212 216 222 224 226 230 211 199 203 195 193 200 210 228 227 229 241 233 229 224 214 212 212 209 212 214 215 214 214 212 210 207 205
333 337 338 340 341 338 337 337 355 336 325 316 241 182 135 349 349 338 298 261 268 239 194 213 217 218 201 144 162 190 213 213 216 210 179 190 199 187 199 204 205 209 201 200 208 221 223 205 204 206 199 207 213 207 207 212 213 219 221 224 233 217 205 209 194 185 206 213 208 214 235 247 229 229 228 214 208 209 207 207 210 212 212 214 215 213 210 208
336 337 339 341 340 338 340 343 340 328 319 325 125 175 286 333 337 324 277 259 268 213 149 189 193 174 167 160 168 178 204 210 208 204 185 195 203 196 201 197 203 215 204 199 207 224 218 187 187 208 204 207 215 214 209 212 219 221 213 216 229 226 214 211 193 188 218 224 202 204 232 254 235 228 225 216 211 208 205 207 208 207 208 211 213 212 211 210
338 337 338 339 338 340 340 310 321 325 313 37 55 288 304 318 323 311 247 258 263 193 131 181 181 163 170 166 169 173 178 156 173 192 194 197 198 202 212 192 190 219 202 187 205 212 206 193 191 209 211 207 213 216 207 207 219 226 207 205 217 223 220 210 197 203 225 225 206 206 223 248 248 237 224 216 214 209 207 210 208 206 207 209 210 211 210 209
337 336 337 337 336 335 315 284 309 317 306 343 325 296 311 309 299 266 250 265 249 115 131 149 111 157 174 162 183 202 150 127 169 186 185 193 195 196 213 204 197 204 187 189 209 184 191 205 196 199 212 213 213 216 207 205 219 232 210 197 204 216 221 213 205 214 226 224 217 212 221 243 250 239 225 215 215 214 213 212 209 207 207 207 209 210 209 209
335 333 334 334 333 334 314 271 277 282 292 302 298 301 309 296 267 226 253 264 173 129 159 145 137 173 167 161 199 223 239 219 228 165 175 193 201 205 224 217 208 202 190 204 221 178 179 211 205 198 213 218 215 217 212 208 215 222 200 195 200 210 218 217 215 221 226 226 227 217 212 229 253 236 214 210 216 221 220 216 211 208 207 206 207 208 207 206
334 330 332 333 331 332 321 271 265 284 293 289 304 312 298 266 228 219 222 230 217 147 141 161 167 170 171 176 200 212 225 232 187 151 176 187 195 207 238 232 217 210 198 208 226 216 167 193 208 207 214 218 220 220 214 213 215 202 188 200 200 205 214 221 222 230 233 225 230 230 212 212 250 246 212 205 217 226 228 223 215 209 208 207 206 206 205 203
331 328 330 328 320 305 297 276 267 287 282 305 323 305 275 235 217 232 209 202 295 165 156 182 176 166 182 195 197 188 204 220 186 172 179 180 188 197 206 216 212 212 205 203 220 221 192 180 199 207 212 217 222 219 211 215 217 209 203 204 196 194 205 217 217 226 238 226 227 236 220 209 238 251 226 210 218 231 238 233 223 210 206 206 205 206 204 201
330 328 327 323 314 286 261 258 262 263 255 316 318 283 244 214 222 232 198 128 217 179 173 186 178 178 190 202 208 186 193 210 194 186 184 184 189 193 200 203 192 201 210 200 205 214 209 204 198 193 203 212 215 209 203 210 214 214 214 206 199 195 195 210 211 210 229 230 230 235 223 213 232 248 247 236 225 229 235 240 240 218 207 203 202 205 203 200
329 327 325 323 314 275 258 262 258 258 268 293 293 251 223 230 226 212 199 194 156 134 155 175 180 189 198 206 199 190 208 205 190 194 194 191 194 195 203 206 198 203 213 200 197 203 207 212 207 198 194 203 210 208 199 199 204 209 211 205 204 204 202 209 213 212 221 227 227 227 223 224 233 242 246 247 244 242 245 250 250 229 215 206 200 201 200 200
329 329 327 324 309 276 265 261 249 249 251 241 237 212 217 233 229 203 209 211 189 112 141 162 187 201 214 224 206 196 228 201 184 198 196 192 202 200 201 207 204 209 217 203 201 202 204 209 205 202 190 189 203 215 212 198 199 209 213 215 214 213 216 214 212 216 220 224 218 206 207 227 232 235 241 243 244 247 255 258 243 223 217 208 202 199 198 200
331 331 325 315 298 282 261 239 229 215 208 203 206 213 217 226 226 216 218 216 213 197 173 179 207 218 222 223 213 213 236 205 185 202 204 198 206 203 200 205 201 205 216 210 202 205 215 219 196 196 197 188 196 211 216 207 203 207 213 220 221 217 222 227 230 230 225 230 223 201 202 230 235 245 249 248 252 250 253 253 237 221 211 204 202 200 200 200
331 329 319 297 275 273 237 223 203 191 206 213 213 220 221 222 224 224 218 219 226 220 210 214 217 230 233 218 211 203 208 222 195 200 211 208 212 209 204 203 195 201 214 214 201 199 218 224 183 189 199 195 194 201 209 218 213 197 207 219 222 222 227 231 234 233 228 233 230 207 211 227 233 244 243 245 254 253 249 246 238 224 205 200 202 201 202 200
327 324 313 290 275 253 219 210 188 191 214 223 222 228 227 226 233 239 227 219 237 227 225 230 217 225 231 224 223 204 193 211 204 204 214 206 211 211 207 203 195 202 212 214 214 205 220 226 176 184 197 194 194 201 206 220 224 205 207 211 212 229 238 235 226 216 219 232 236 224 222 221 225 236 236 236 242 245 246 248 246 228 202 203 206 201 202 200
316 311 295 273 272 253 204 187 180 192 216 225 233 238 236 233 234 234 228 229 255 231 225 234 217 215 226 229 227 203 191 199 195 205 216 200 201 204 205 206 195 200 209 213 222 201 210 233 186 183 198 193 193 206 207 211 220 227 227 209 206 219 222 222 225 221 221 228 238 235 229 223 226 229 220 220 225 231 235 240 243 228 204 206 209 203 201 198
310 306 284 158 109 70 152 170 180 203 219 222 232 234 236 241 236 234 237 240 249 238 231 238 227 216 224 232 231 200 194 207 197 200 211 197 183 188 202 207 193 196 204 209 224 206 196 238 206 182 197 195 188 206 211 201 209 223 237 224 217 221 217 215 221 228 231 232 236 237 233 222 222 228 222 215 213 224 234 236 242 240 221 211 208 203 197 193
316 304 284 103 96 81 114 175 206 216 220 226 236 234 234 242 238 236 239 239 242 239 237 240 234 225 221 228 238 214 201 216 210 205 209 192 173 180 204 210 194 196 204 206 220 222 196 222 225 181 190 198 192 201 211 206 199 204 217 221 213 211 223 226 222 224 233 237 234 237 240 228 210 218 224 224 224 236 250 255 256 259 248 226 206 198 193 192
311 282 139 100 123 121 139 225 228 220 227 234 239 240 242 247 245 238 233 234 238 241 246 249 243 238 229 224 230 220 210 221 218 218 217 199 201 205 200 207 205 198 201 206 213 217 201 208 220 191 183 203 208 202 209 217 211 199 203 216 215 209 215 224 224 220 225 235 236 237 244 239 214 199 211 224 233 235 241 249 254 258 259 244 207 194 193 195
287 259 313 4 243 233 249 248 237 230 235 238 241 246 250 255 253 247 238 235 236 235 241 249 247 243 240 232 230 226 222 227 223 223 223 208 214 212 163 186 219 210 202 211 210 206 207 210 218 218 205 210 216 209 209 218 222 218 212 213 217 217 216 220 223 218 221 233 237 241 245 241 226 198 192 213 230 234 238 250 259 260 261 252 207 195 196 198
276 278 300 306 243 215 238 250 242 236 235 242 250 251 253 253 249 248 243 236 233 229 228 235 237 237 239 237 235 235 231 235 237 230 230 223 219 226 213 187 226 214 202 210 205 196 205 213 215 229 230 219 220 215 206 212 223 226 221 214 216 219 220 225 228 225 227 229 229 238 240 235 227 203 193 214 226 230 237 245 249 252 259 250 206 196 196 197
295 286 284 272 200 204 235 248 249 249 241 240 246 247 248 248 246 245 242 235 228 227 227 228 230 230 232 233 233 236 232 233 239 235 236 241 231 238 246 235 228 220 201 201 198 184 194 208 208 221 225 215 217 211 199 205 216 223 223 218 218 221 223 227 230 229 233 230 228 235 236 230 225 208 207 229 228 224 227 233 237 243 254 251 210 189 189 190
294 276 253 226 200 208 239 261 271 279 268 259 259 257 250 245 241 239 241 243 238 233 233 230 228 227 228 229 230 232 232 233 237 233 233 238 235 237 238 230 231 227 211 281 320 198 196 207 205 213 218 209 209 208 199 202 208 217 226 222 219 221 223 225 228 228 232 231 230 235 237 233 225 208 203 217 224 220 222 236 249 251 253 251 215 182 183 185
296 287 271 238 204 213 242 255 259 262 272 284 282 267 255 248 241 232 233 243 243 239 242 239 230 225 222 225 227 227 228 230 232 234 234 229 224 221 219 218 224 221 223 328 309 237 217 220 209 216 228 224 219 217 212 210 209 212 219 222 223 223 224 227 230 229 230 230 232 237 242 241 230 212 204 211 222 226 226 239 251 249 248 247 223 190 182 183
273 277 284 291 266 251 241 230 236 247 267 283 289 283 273 267 259 235 223 230 235 234 239 240 233 227 218 216 221 223 223 222 223 226 231 230 223 207 192 201 215 214 231 271 248 220 231 232 213 219 232 236 237 233 221 216 219 218 217 219 222 223 225 228 230 232 234 232 233 234 234 238 235 225 217 214 220 229 232 241 251 253 253 244 210 188 188 189
259 270 295 317 299 272 265 279 303 301 287 279 275 277 277 273 269 256 230 227 229 225 227 231 228 228 227 221 219 221 219 218 219 222 224 227 230 225 210 213 219 216 222 235 221 206 232 234 219 221 228 232 237 239 234 226 224 225 223 220 220 221 222 226 231 235 235 236 240 234 227 230 233 232 233 230 227 231 236 241 248 257 261 242 189 194 205 200
266 271 286 299 284 282 296 307 313 304 285 278 270 261 266 266 262 263 260 246 235 224 223 229 227 226 228 228 228 225 219 219 221 220 220 223 227 230 229 224 221 215 220 229 217 201 224 234 228 228 228 228 231 233 235 233 227 228 230 229 227 224 222 224 230 233 234 238 243 241 236 232 228 228 237 241 242 244 247 245 244 252 261 253 212 210 217 210
282 286 292 300 289 284 288 286 285 283 275 272 266 257 258 260 258 266 279 271 259 239 224 226 233 233 227 225 227 229 227 228 232 226 219 218 219 223 229 232 225 213 213 222 215 197 213 229 229 232 235 231 229 230 232 234 232 231 231 232 233 232 228 226 226 228 232 236 238 239 240 237 228 228 237 240 244 247 247 243 241 246 256 256 237 224 224 218
286 289 287 292 289 281 279 273 268 271 272 263 259 260 262 264 280 311 301 272 264 264 253 250 274 279 242 224 225 230 234 238 245 248 243 233 232 235 235 234 234 223 213 211 200 192 211 224 226 235 240 230 225 227 229 230 234 235 233 232 233 234 234 232 228 226 228 232 234 235 237 238 233 232 234 234 238 242 239 236 235 237 246 248 240 232 228 219
282 277 261 264 279 278 277 276 267 264 268 263 268 291 299 298 318 329 307 269 253 268 306 336 332 325 283 234 226 244 296 312 292 289 291 277 268 268 264 253 251 252 232 208 190 181 208 228 222 226 236 231 223 223 225 226 229 231 229 229 232 234 235 237 235 231 227 229 233 233 235 238 234 230 230 230 232 234 230 228 228 229 235 237 234 234 232 222
Height
808 806 804 802 800 799 797 795 794 793 792 791 789 788 787 785 784 782 781 779 778 776 775 773 771 770 768 767 765 763 761 759 758 756 755 753 751 752 752 752 753 755 757 759 761 762 762 764 763 764 765 765 765 761 759 759 756 763 771 778 782 780 777 772 771 771 770 775 776 776 775 781 788 785 780 780 784 788 791 789 788 788 787 788 791 796 801 807
807 806 803 802 800 798 797 795 794 793 791 790 789 788 786 785 783 781 780 778 777 775 774 772 770 769 767 766 765 763 761 758 756 753 751 750 750 750 750 750 752 753 755 757 758 758 760 762 761 763 765 766 763 758 760 757 758 767 770 777 779 772 766 759 760 762 763 770 773 774 774 777 783 783 780 786 792 791 795 795 792 794 793 792 794 799 803 806
807 805 803 801 799 798 797 795 793 792 790 789 788 787 785 784 782 781 779 777 775 774 772 771 770 768 767 766 764 763 761 757 754 749 747 748 748 748 748 749 750 751 753 754 755 755 757 758 759 761 765 766 759 758 762 757 759 762 765 778 773 760 759 754 755 758 758 763 771 775 773 776 778 778 780 786 793 793 795 796 795 799 799 797 796 799 803 806
807 805 803 801 799 797 796 794 793 791 790 788 787 785 784 782 781 780 778 776 774 773 771 770 768 767 766 764 764 764 760 759 752 744 745 747 746 747 746 747 748 751 753 753 754 754 754 755 757 759 764 767 757 756 761 757 758 758 763 774 761 753 760 754 752 754 755 759 767 773 775 779 776 775 780 784 793 797 791 788 790 795 796 797 797 798 802 805
806 804 802 800 798 796 795 793 792 790 789 787 785 784 782 781 780 778 777 775 773 771 770 769 767 766 765 764 764 762 763 765 751 741 745 745 746 746 745 746 747 750 752 754 754 753 754 753 756 761 764 766 759 759 761 751 751 758 760 759 751 753 760 752 748 752 754 758 764 772 777 777 774 776 780 782 791 792 782 780 782 786 790 793 795 797 801 803
807 804 802 800 798 796 794 792 791 790 788 786 784 782 781 780 778 777 775 773 772 770 768 767 766 765 764 763 764 763 767 766 747 741 746 743 746 745 745 746 747 750 751 753 751 751 753 752 758 764 764 763 760 760 757 745 747 762 760 751 749 751 754 750 748 752 754 759 767 771 771 770 777 782 778 779 784 779 772 773 777 781 785 789 792 796 800 802
807 804 802 799 797 795 793 791 790 788 787 785 783 781 779 778 776 775 773 772 770 768 767 765 764 764 763 763 764 762 763 756 742 742 744 742 746 744 745 745 746 750 750 750 750 750 751 753 759 760 762 763 758 755 751 745 747 762 761 750 749 748 750 748 747 752 753 760 763 762 766 772 781 782 778 779 778 774 771 771 775 780 784 788 792 795 798 801
807 805 802 799 797 795 792 790 789 787 786 784 782 780 778 776 774 773 771 770 767 766 765 763 763 762 762 763 762 761 757 747 740 742 742 743 745 743 745 744 746 749 748 748 746 746 748 753 755 753 760 759 752 751 749 750 754 759 759 750 747 749 748 745 746 752 754 757 758 761 770 775 775 775 779 780 775 774 772 773 777 781 785 789 792 795 797 800
807 805 802 800 797 794 792 789 788 786 784 782 781 778 776 774 772 770 769 767 765 764 762 761 762 761 762 761 760 762 752 740 739 741 741 742 743 743 744 743 745 746 745 745 742 743 746 749 749 746 754 751 746 749 747 757 760 752 752 748 749 751 747 745 748 752 755 755 757 767 775 773 769 773 781 778 774 775 773 777 780 782 787 789 792 794 796 799
807 805 802 800 797 794 791 789 787 785 783 781 778 776 775 772 770 768 766 765 763 762 760 760 760 759 763 760 761 762 745 736 740 740 740 742 741 742 743 743 744 743 742 742 739 740 740 742 741 737 745 745 745 748 746 755 754 744 747 748 749 750 746 746 750 751 753 756 759 769 776 773 770 777 786 778 773 776 776 781 782 784 789 789 791 792 795 799
807 805 802 799 797 794 790 788 786 784 782 779 777 774 772 770 768 766 764 763 760 759 758 758 758 759 761 759 760 755 739 736 740 738 740 740 740 741 741 741 741 741 740 738 738 736 736 736 732 737 748 746 745 748 745 745 744 744 748 752 752 750 748 748 751 753 754 761 760 763 774 776 775 781 781 775 774 776 779 784 784 786 789 788 790 792 794 797
807 805 802 799 796 793 790 788 785 783 780 777 775 772 770 768 765 763 761 760 758 757 757 756 758 758 759 758 754 745 737 738 738 737 739 738 739 740 739 740 739 739 738 736 736 734 735 733 732 742 746 741 747 753 746 737 741 746 748 758 760 754 756 752 751 753 756 764 757 761 785 788 784 782 772 770 774 776 780 784 786 787 788 789 790 791 794 795
807 804 802 799 796 793 790 787 784 782 778 776 773 770 768 765 763 762 759 758 757 756 755 756 757 757 760 756 742 736 737 738 736 736 737 736 737 737 737 738 737 738 737 735 736 735 736 735 735 739 737 740 747 746 739 735 743 750 748 757 764 766 767 755 751 755 758 763 754 766 797 794 781 776 769 769 773 776 783 784 786 787 787 789 789 791 793 794
806 804 801 798 795 792 789 786 783 780 776 774 771 768 765 762 761 759 757 757 756 756 755 756 757 759 759 749 735 734 735 734 736 735 734 735 735 735 736 736 737 737 736 736 735 736 738 736 735 736 736 738 738 736 741 745 747 751 754 757 763 773 773 756 753 758 764 765 754 769 795 786 773 771 768 768 770 776 783 783 784 785 786 788 788 790 792 792
806 803 800 797 794 791 788 785 782 778 775 772 768 766 763 761 759 757 757 756 755 756 755 756 758 758 756 743 731 732 732 732 733 732 732 733 732 733 734 735 736 736 736 737 736 737 737 737 739 742 741 735 735 745 753 754 750 752 766 770 763 768 771 762 756 756 765 767 758 772 791 780 768 767 766 766 769 774 780 782 782 783 784 786 787 789 790 791
805 803 799 796 793 790 787 784 781 777 773 769 767 764 761 759 757 756 756 755 756 756 756 758 757 757 756 742 730 731 730 729 729 730 731 731 730 730 732 735 735 736 737 736 737 737 736 738 739 739 740 741 746 752 756 762 760 756 766 772 764 766 772 770 762 752 757 767 766 773 783 777 766 764 765 765 768 773 778 780 780 781 782 783 786 787 788 790
804 802 798 795 792 789 786 783 780 776 771 768 764 761 759 757 756 756 756 756 757 755 756 757 754 756 750 734 731 732 726 726 728 729 730 729 730 729 730 733 734 735 735 736 737 736 736 739 741 741 742 746 746 749 763 775 771 763 763 764 760 760 767 773 770 756 752 765 771 772 774 772 766 763 766 765 766 772 776 778 778 779 780 781 783 784 785 787
804 801 798 795 791 788 785 781 778 774 770 766 763 760 757 756 756 756 756 756 756 757 758 756 755 759 747 732 732 730 723 725 727 727 728 728 728 729 729 731 731 733 736 740 740 739 740 740 743 749 749 748 745 748 766 771 762 762 763 763 761 758 761 768 770 760 755 765 771 774 777 771 765 765 768 766 765 771 774 774 776 777 779 780 781 782 783 785
803 800 798 794 790 787 784 780 777 773 768 764 761 759 756 756 756 756 756 756 755 754 752 749 750 749 740 731 727 724 723 725 726 725 725 726 727 728 728 729 730 734 741 746 745 741 742 744 748 754 752 749 745 744 752 750 746 751 753 756 760 761 763 759 757 752 752 767 771 773 778 772 767 768 769 767 765 770 772 771 773 775 776 778 779 780 780 782
802 800 797 793 789 785 782 779 776 772 768 764 761 758 756 756 754 753 753 751 747 740 736 736 736 733 730 726 722 722 724 724 725 723 722 724 725 727 728 728 732 737 741 745 746 738 739 751 755 751 746 743 740 737 737 735 736 742 747 751 752 757 762 753 751 748 746 764 770 766 771 770 765 765 765 766 766 770 772 772 773 773 774 776 777 778 778 779
801 799 796 792 788 784 781 778 774 771 769 766 763 760 758 759 758 757 755 745 734 730 730 727 726 726 723 721 719 721 725 725 723 720 721 722 722 729 731 730 739 745 740 738 740 737 741 753 750 740 737 733 733 733 733 734 736 741 746 749 749 751 754 747 749 750 745 760 767 761 768 769 763 761 761 763 768 770 770 771 772 770 771 772 774 776 775 775
801 798 794 791 787 782 779 776 773 770 768 767 765 761 761 764 765 764 762 750 732 725 726 723 722 722 717 717 718 721 728 730 727 721 719 720 721 729 731 732 742 743 736 735 741 748 753 752 740 731 729 728 731 731 733 737 739 744 744 749 753 747 746 749 751 751 749 759 765 761 768 769 760 757 758 760 764 765 763 764 767 767 770 771 771 773 773 774
800 796 793 790 785 782 778 774 772 769 768 768 766 763 763 766 766 765 766 757 737 722 720 721 721 719 716 717 716 720 728 730 729 722 714 719 722 723 727 733 738 737 736 740 745 753 756 746 732 726 726 730 735 733 735 740 741 744 744 750 754 743 750 765 762 755 751 755 759 759 767 767 760 757 756 756 757 758 759 759 760 762 766 767 766 767 769 771
799 795 793 789 785 781 775 773 770 769 770 767 766 765 764 766 765 765 763 754 737 719 713 713 713 714 714 713 712 718 724 721 722 717 709 716 721 720 724 729 733 736 736 738 741 746 745 733 723 724 728 733 738 737 738 744 745 743 740 746 748 741 749 761 758 755 755 755 754 759 775 774 762 762 759 753 754 755 755 757 759 759 760 762 762 762 764 766
798 796 792 788 785 779 774 773 770 770 770 765 765 764 764 765 763 765 763 752 736 718 711 710 710 711 707 709 712 712 717 717 714 709 704 709 715 719 723 721 727 737 734 734 739 741 736 725 721 729 734 735 740 740 739 742 746 745 738 736 737 737 744 748 749 758 770 773 759 762 790 786 759 758 758 752 754 756 754 756 759 759 758 760 761 761 760 761
797 794 791 789 785 779 774 770 770 772 767 764 766 764 765 765 762 765 761 753 738 717 712 713 711 709 705 708 710 708 720 718 704 701 702 705 706 711 723 721 722 730 728 728 735 736 730 724 726 733 737 738 740 741 735 734 746 748 734 727 730 732 739 744 748 763 779 778 757 755 786 789 763 754 750 746 753 756 754 754 755 756 757 757 757 757 757 758
795 792 791 788 784 782 778 771 772 772 766 766 766 765 766 763 763 764 760 760 742 712 710 714 709 707 704 705 705 711 726 715 700 701 700 703 702 704 720 725 725 726 718 726 741 735 726 729 734 734 735 739 741 740 732 729 744 744 723 722 732 734 739 743 749 763 764 760 756 753 767 783 775 755 742 742 751 755 755 754 751 750 752 752 752 752 752 753
794 790 789 787 784 784 782 776 774 771 769 768 766 767 765 762 764 761 762 769 740 704 705 710 705 703 700 702 703 708 713 706 709 709 694 699 702 705 721 722 723 725 716 729 746 731 722 732 735 734 738 739 736 732 724 725 739 732 714 720 729 732 737 738 746 757 750 754 772 764 760 781 780 754 741 744 751 757 754 750 748 746 745 746 746 746 746 748
792 788 787 785 782 780 779 778 774 770 769 767 766 767 763 763 763 755 765 767 727 698 703 704 704 705 702 706 707 706 704 702 711 706 694 701 700 704 718 714 714 722 718 725 734 724 720 723 722 728 736 734 728 723 718 725 732 722 715 722 726 729 733 735 744 750 748 760 777 766 758 780 781 754 746 752 754 754 747 740 739 738 738 739 739 740 741 743
789 786 784 782 780 778 778 776 771 767 766 765 766 765 763 764 759 760 774 758 717 703 703 702 707 705 705 711 711 708 708 705 704 702 702 705 702 704 709 704 707 717 720 723 724 719 714 713 714 720 725 723 721 718 715 720 722 718 724 730 733 734 734 738 741 744 758 770 770 757 749 770 781 755 740 747 746 739 735 733 732 731 732 733 733 734 735 738
787 783 781 780 779 778 778 772 767 765 765 765 765 764 764 761 753 762 764 734 711 709 703 704 708 703 705 711 709 706 708 705 701 705 710 708 709 713 713 713 714 720 726 728 725 719 716 721 720 715 713 714 719 720 718 718 716 722 731 735 745 751 748 753 753 755 775 779 764 749 740 760 780 757 731 728 725 722 725 726 724 725 727 727 728 728 728 731
784 780 778 776 774 774 773 768 765 765 765 765 765 762 762 761 757 754 739 717 715 712 701 705 706 703 706 707 706 704 704 706 701 703 709 709 712 714 715 718 718 728 736 731 728 725 721 721 717 714 711 711 722 729 728 724 722 728 734 739 756 768 771 779 775 773 782 773 753 740 738 756 766 744 724 719 714 714 716 713 713 716 719 721 723 723 723 726
781 777 773 771 769 767 765 764 764 765 764 765 765 758 758 764 754 736 722 715 714 703 697 702 702 702 707 707 706 702 700 703 699 699 702 703 709 710 709 706 705 720 729 725 728 731 729 722 714 717 716 709 718 729 734 733 730 733 735 740 757 768 783 793 783 777 778 764 744 734 741 758 755 732 719 715 710 706 705 703 704 707 710 714 715 717 720 721
778 774 770 766 765 763 761 762 761 762 764 764 762 757 760 761 741 721 717 711 702 698 698 702 702 704 706 705 703 698 701 701 695 698 700 701 709 710 707 704 700 707 713 718 724 726 736 735 717 716 716 709 713 717 718 723 728 729 722 727 742 749 765 779 774 773 773 759 745 742 752 761 753 729 710 705 703 699 699 697 698 702 704 706 709 712 715 716
774 771 767 763 762 760 759 760 759 760 763 760 756 755 754 749 730 719 715 704 697 699 699 699 703 708 707 702 698 695 700 700 693 696 699 700 705 704 702 701 698 700 707 718 719 714 729 727 703 701 703 702 711 708 701 713 728 724 714 724 734 728 736 751 752 748 751 756 749 745 751 743 728 714 701 701 702 697 699 697 697 703 702 703 708 709 710 712
771 768 765 762 761 759 758 758 758 760 760 754 752 748 737 728 719 713 706 699 697 699 701 703 704 710 710 702 698 696 696 697 695 698 698 696 697 695 694 692 690 695 700 709 713 712 725 719 695 696 700 696 704 704 698 709 721 720 721 727 720 708 717 740 747 736 741 760 749 737 745 735 722 718 704 702 706 700 699 699 697 700 701 704 707 705 706 707
771 767 763 760 759 758 757 756 757 759 757 751 747 737 722 713 708 703 699 698 697 696 703 710 704 705 708 703 699 696 696 697 696 699 699 696 694 689 688 687 684 688 690 695 704 704 714 717 698 698 707 698 692 697 698 697 702 715 724 718 707 709 714 725 745 749 755 767 747 730 742 741 738 734 711 703 710 705 699 697 694 695 699 703 703 701 701 701
772 767 761 757 758 756 755 756 756 756 753 749 742 730 718 711 703 699 698 699 700 698 704 709 701 697 701 703 697 690 694 699 696 697 697 695 692 683 682 686 682 683 682 686 698 696 703 718 704 694 705 700 689 700 708 699 693 701 706 699 707 732 735 729 743 754 759 766 753 735 734 735 735 728 712 708 710 704 699 695 692 693 696 699 698 697 698 697
773 765 756 753 756 755 754 756 754 753 750 745 739 728 717 710 702 698 697 698 701 702 703 703 697 696 697 697 693 689 693 695 692 694 695 694 693 680 676 681 681 682 680 682 694 693 697 717 711 692 693 696 696 705 714 710 700 697 700 699 703 717 727 728 733 739 747 756 755 745 737 731 722 710 705 707 702 698 698 694 691 691 690 692 692 692 694 696
774 766 754 752 756 754 754 755 752 750 746 736 728 719 711 707 703 698 697 698 700 700 702 699 695 697 697 693 691 688 691 692 689 692 692 689 692 686 676 675 679 681 679 680 689 689 694 712 715 698 689 696 703 703 703 705 703 706 715 716 709 708 713 718 719 721 731 743 749 749 743 725 703 693 695 698 695 694 694 692 690 686 683 683 684 686 689 691
775 767 754 752 755 754 754 754 747 743 738 729 720 714 708 705 703 699 696 697 698 695 695 696 695 695 694 693 692 688 690 693 690 691 691 686 690 689 677 669 673 677 679 685 688 688 694 706 710 705 701 703 700 688 686 690 691 699 711 713 710 711 716 728 731 719 716 727 732 738 743 722 688 680 687 690 690 688 686 687 687 682 678 676 678 681 683 686
774 762 750 751 755 753 753 749 738 732 728 722 715 710 706 705 704 702 697 696 697 695 693 695 695 694 692 690 689 687 689 693 690 689 689 685 684 682 673 668 670 670 675 685 683 678 684 695 706 707 700 697 689 678 678 682 680 685 694 697 700 704 709 726 737 724 714 718 715 719 735 718 680 670 680 684 683 682 680 681 682 679 675 673 675 677 678 681
770 759 749 749 751 751 751 745 733 725 721 715 710 706 705 706 705 703 699 697 697 696 696 695 694 694 692 689 688 688 689 692 690 687 686 685 681 675 669 669 671 669 673 682 680 675 681 694 708 709 697 687 681 674 673 676 681 688 688 686 691 696 697 703 711 712 713 718 717 722 732 715 680 670 676 678 678 677 677 676 679 679 675 673 676 676 677 680
771 762 752 748 749 748 747 740 729 721 715 710 710 708 705 703 702 701 700 697 694 694 695 693 691 691 689 687 688 688 689 693 692 685 685 686 680 671 667 669 672 673 673 676 675 675 686 697 706 714 716 711 702 694 690 687 687 690 687 682 683 686 689 693 696 703 710 712 711 721 728 711 684 674 677 678 677 676 674 671 673 676 675 673 675 675 677 680
770 759 747 744 745 745 740 731 725 723 717 714 715 712 707 703 699 698 698 696 691 690 691 689 686 685 685 685 687 686 685 689 691 686 683 684 677 669 667 669 672 672 670 670 668 670 684 693 697 710 722 725 720 710 702 696 691 689 685 682 682 683 687 694 699 707 713 710 705 710 715 703 682 675 680 681 679 678 675 671 670 671 672 672 673 676 678 679
770 759 746 739 736 737 734 727 725 727 723 722 722 715 708 704 697 693 695 695 691 687 687 685 681 682 684 685 687 688 684 683 687 686 683 682 677 669 666 668 671 670 670 673 672 674 684 687 688 697 701 700 700 693 684 684 689 693 690 685 683 682 683 689 698 705 706 708 708 703 700 698 688 680 681 680 678 678 676 673 671 670 669 669 671 674 675 677
772 761 749 742 738 733 727 722 722 724 723 725 726 718 710 706 699 692 691 691 689 688 688 685 682 683 684 684 686 688 684 682 684 685 684 681 674 668 666 668 670 670 672 674 672 676 689 690 685 689 689 682 680 677 673 676 684 687 687 686 684 683 682 687 694 695 693 704 712 699 691 700 694 681 679 678 676 676 675 672 671 668 665 665 667 671 673 675
767 757 747 749 749 740 731 726 726 729 728 726 724 720 715 711 704 698 691 686 685 685 687 687 684 682 681 680 683 685 684 684 685 684 683 681 677 673 671 670 668 667 670 672 668 672 690 693 682 683 685 679 674 672 670 673 678 679 679 682 683 683 685 688 690 687 686 697 704 693 689 697 692 680 675 671 669 672 671 667 664 661 660 662 666 671 672 672
763 755 748 750 752 746 741 737 735 735 732 727 723 719 717 714 707 698 691 689 687 682 684 688 685 681 679 677 679 683 684 686 687 683 681 681 680 679 678 675 669 663 666 669 666 669 685 689 679 677 681 677 672 671 668 669 674 676 675 675 675 676 678 682 684 681 680 686 688 685 688 688 681 675 671 664 661 662 661 660 660 660 660 661 665 669 669 669
763 759 755 755 754 749 745 741 737 736 731 727 724 718 713 711 706 700 696 698 698 687 681 684 682 677 675 675 677 680 678 678 680 678 676 679 679 677 677 675 668 662 664 667 667 670 682 686 676 673 680 678 669 666 666 667 670 672 672 670 669 671 672 674 676 676 679 683 681 681 687 684 671 665 663 660 658 658 659 661 661 661 660 660 662 664 664 664
767 765 765 765 759 750 744 738 734 734 731 726 722 716 713 711 708 708 705 699 697 693 684 684 685 680 675 673 674 675 671 671 674 672 670 675 675 672 671 669 667 666 665 667 670 674 680 683 676 677 687 682 668 667 668 664 666 671 672 670 668 670 670 668 666 668 672 679 681 682 686 681 667 659 659 659 658 659 661 661 661 660 658 657 659 660 660 660
769 766 765 767 762 751 745 738 733 733 729 723 719 718 719 718 713 715 712 697 690 690 688 689 693 688 682 679 677 676 673 673 674 671 670 672 670 668 668 665 665 669 669 669 674 676 679 683 680 681 689 682 667 665 665 666 678 682 671 665 665 665 665 663 660 658 658 665 675 678 674 667 659 656 659 660 657 657 658 657 657 657 655 654 655 655 655 655